Regional Weather Roundup
Issued by NWS

Home | Current Version | Previous Version | Graphics & Text | Print | Product List | Glossary On
Versions: 1 2 3 4 5 6 7 8 9 10 11 12 13 14 15 16 17 18 19 20 21 22 23 24 25 26 27 28 29 30 31 32 33 34 35 36 37 38 39 40 41 42 43 44 45 46 47 48 49 50
138
ASUS44 KJAN 261810
RWRMS

MISSISSIPPI HOURLY WEATHER ROUNDUP
NATIONAL WEATHER SERVICE JACKSON MS
1200 PM CST MON JAN 26 2015

NOTE: "FAIR: INDICATES FEW OR NO CLOUDS BELOW 12,000 FEET WITH NO
SIGNIFICANT WEATHER AND/OR OBSTRUCTIONS TO VISIBILITY.

MSZ001>002-007>008-010>013-018>021-025>028-034>036-261900-
NORTHWEST MISSISSIPPI

CITY           SKY/WX    TMP DP  RH WIND       PRES   REMARKS
CLARKSDALE     PTSUNNY   45  34  65 W9        30.15F
CLEVELAND      MOCLDY    46  37  70 N3        30.14S
GREENWOOD      PTSUNNY   45  32  60 NW13G18   30.14F
6HR MIN TEMP:  41; 6HR MAX TEMP:  46;

GREENVILLE     MOSUNNY   49  33  54 VRB7      30.14F
6HR MIN TEMP:  43; 6HR MAX TEMP:  50;

GRENADA        MOCLDY    45  32  61 NW8       30.13S
OLIVE BRANCH   PTSUNNY   41  32  70 NW8       30.10F
OXFORD         PTSUNNY   43  28  56 W13G18    30.12F
TUNICA         PTCLDY    43  32  65 NW9       30.14F
$$

MSZ003>006-009-014>017-022>024-029>033-037>039-261900-
NORTHEAST MISSISSIPPI

CITY           SKY/WX    TMP DP  RH WIND       PRES   REMARKS
COLUMBUS AFB   PTSUNNY   46  31  56 NW13G21   30.08S
6HR MIN TEMP:  40; 6HR MAX TEMP:  47;

CORINTH        FAIR      43  30  61 NW10      30.06F
GOLDN TRIANGLE PTSUNNY   48  34  57 NW14      30.08F
STARKVILLE     MOCLDY    46  34  61 W8        30.09S
TUPELO         MOSUNNY   47  31  53 N9        30.08F
6HR MIN TEMP:  39; 6HR MAX TEMP:  47;

$$

MSZ040-058-261900-
CENTRAL MISSISSIPPI

CITY           SKY/WX    TMP DP  RH WIND       PRES   REMARKS
JACKSON INTL   MOSUNNY   50  34  54 VRB7      30.13F
6HR MIN TEMP:  45; 6HR MAX TEMP:  50;

JACKSON HAWKNS MOSUNNY   50  34  54 VRB7      30.14F
6HR MIN TEMP:  44; 6HR MAX TEMP:  50;

MERIDIAN KEY   PTSUNNY   48  31  51 W14G21    30.09F
6HR MIN TEMP:  44; 6HR MAX TEMP:  48;

MERIDIAN NAS   PTSUNNY   46  31  55 NW14G22   30.09F
6HR MIN TEMP:  43; 6HR MAX TEMP:  47;

RAYMOND        FAIR      50  46  87 NW8       30.14F
VICKSBURG      SUNNY     50  35  56 NW8       30.17F
6HR MIN TEMP:  44; 6HR MAX TEMP:  50;

$$

MSZ059>079-261900-
SOUTH MISSISSIPPI

CITY           SKY/WX    TMP DP  RH WIND       PRES   REMARKS
BROOKHAVEN     FAIR      52  36  54 NW7       30.14F
HATTIESBURG    SUNNY     54  36  50 NW12      30.10F
6HR MIN TEMP:  44; 6HR MAX TEMP:  54;

MCCOMB         SUNNY     54  35  48 N10       30.12F
6HR MIN TEMP:  41; 6HR MAX TEMP:  54;

NATCHEZ        SUNNY     52  34  50 N12G20    30.16F
6HR MIN TEMP:  39; 6HR MAX TEMP:  52;

PINE BELT      MOSUNNY   54  34  47 NW12G20   30.11F
6HR MIN TEMP:  43; 6HR MAX TEMP:  54;

$$

MSZ080>082-261900-
COASTAL MISSISSIPPI

CITY           SKY/WX    TMP DP  RH WIND       PRES   REMARKS
BAY ST LOUIS   SUNNY     57  32  38 N12G21    30.09F
BILOXI         SUNNY     57  37  47 N15       30.06F
6HR MIN TEMP:  42; 6HR MAX TEMP:  57;

PASCAGOULA     SUNNY     57  37  47 N16G25    30.04F
6HR MIN TEMP:  45; 6HR MAX TEMP:  58;

GULFPORT       SUNNY     57  36  45 NW18G26   30.06F
6HR MIN TEMP:  39; 6HR MAX TEMP:  58;

$$



USA.gov is the U.S. government's official web portal to all federal, state and local government web resources and services.